Вернуться в каталог

COSMOS 1190

АктивенНавигацияLEO
NORAD 11869·PAYLOAD·🇷🇺 Russia

Запущен Jul 1, 1980 с Plesetsk Cosmodrome

Loading…

Ближайшие Пролёты (ближайшие 24 часа)

TLE

СвежийSource: Space-Track

Эпоха: Sep 14, 2026, 07:42 UTC

1 11869U 80056A   26257.32151113  .00000085  00000-0  39193-4 0  9995
2 11869  74.0442 232.8642 0012540  49.6806 310.5439 14.34674677393076

Отслеживайте COSMOS 1190 в реальном времени с AllMySat

Download on the App Store